Regional Weather Roundup
Issued by NWS

Home | Current Version | Previous Version | Graphics & Text | Print | Product List | Glossary On
Versions: 1 2 3 4 5 6 7 8 9 10 11 12 13 14 15 16 17 18 19 20 21 22 23 24 25 26 27 28 29 30 31 32 33 34 35 36 37 38 39 40 41 42 43 44 45 46 47 48 49 50
000
ASUS43 KLOT 121410
RWRIL

ILLINOIS REGIONAL WEATHER ROUNDUP
NATIONAL WEATHER SERVICE CHICAGO/ROMEOVILLE IL
900 AM CDT SAT JUL 12 2014

NOTE: "FAIR" INDICATES FEW OR NO CLOUDS BELOW 12,000 FEET WITH NO
SIGNIFICANT WEATHER AND/OR OBSTRUCTIONS TO VISIBILITY.

* THESE STATIONS ARE NOT UNDER NWS QUALITY CONTROL. THEY ALSO MAY NOT
  REPORT WEATHER SUCH AS PRECIPITATION OR FOG.

ILZ001-002-007-009-015-016-024-121500-
NORTHWEST ILLINOIS

CITY           SKY/WX    TMP DP  RH WIND       PRES   REMARKS
MOLINE         CLOUDY    72  69  90 SW6       30.01R
STERLING*      CLOUDY    70  66  88 NE5       30.00F
SAVANNA*       LGT RAIN  71  69  92 N7        29.97F
$$

ILZ003-004-008-010-011-017-018-121500-
NORTH CENTRAL ILLINOIS

CITY           SKY/WX    TMP DP  RH WIND       PRES   REMARKS
ROCKFORD       LGT RAIN  71  67  87 CALM      30.05F
FREEPORT*      RAIN      67  65  94 CALM      30.06F
ROCHELLE*      RAIN      71  67  89 W6        30.05F
DE KALB*       CLOUDY    69  67  95 CALM      30.07R FOG
PERU*          DRIZZLE   72  69  92 CALM      30.03F
$$

ILZ005-006-012>014-019>023-121500-
NORTHEAST ILLINOIS

CITY           SKY/WX    TMP DP  RH WIND       PRES   REMARKS
CHICAGO-OHARE  CLOUDY    70  66  87 S8        30.04F FOG
CHICAGO-MIDWAY RAIN      73  70  90 S7        30.06S FOG
AURORA         TSTM      70  68  93 S3        30.06S VSB 1/2
LANSING*       TSTM      69  67  93 S9        30.07F
JOLIET*        RAIN      70  68  93 SE6       30.06S
WAUKEGAN       CLOUDY    73  67  81 S8        30.03S
DUPAGE AIRPORT HVY RAIN  70  68  93 S5        30.05R VSB 3/4
KANKAKEE*      CLOUDY    70  69  98 S9        30.07S
WHEELING       CLOUDY    73  68  84 S9        30.06S
MORRIS*        CLOUDY    72  72 100 S12       30.06R VSB 1
ROMEOVILLE*    RAIN      70  69  99 SE8       30.05F
NORTHERLY ISL    N/A     71  68  90 S13         N/A
$$

LMZ740>746-121500-
SOUTHERN LAKE MICHIGAN

STATION/POSITION SKY/WX   TEMP    WIND        PRES    VSBY  WAVE
                          AIR SEA DIR/SP/G                  HT/PER
                          (F)     (DEG/KT/KT) (MB)    (MI)  (FT/S)
SOUTHERN BUOY              63 60  150/ 12/ 12 1017.7S         1
WAUKEGAN HARBOR            69     200/  6/  8 1018.3S
HARRISON CRIB              70     190/ 20/ 22   N/A
BURNHAM HARBOR             71     190/ 13       N/A
CALUMET HARBOR             69     170/  4/  7 1018.7R
MICHIGAN CITY              72     160/ 11/ 17   N/A
$$

ILZ025>027-034>036-040-047-049-050-058-095>099-121500-
WEST-CENTRAL ILLINOIS

CITY           SKY/WX    TMP DP  RH WIND       PRES   REMARKS
QUINCY         PTSUNNY   82  72  71 W10       30.07R HX  87
GALESBURG*     CLOUDY    78  70  78 CALM      30.04F
MACOMB*        CLOUDY    78  74  86 SW6       30.07F HX  81
JACKSONVILLE*  PTSUNNY   80  74  82 SW7       30.09S HX  85
PITTSFIELD*    PTSUNNY   82  72  72 SW8       30.09S HX  87
$$

ILZ028>032-037-038-041>044-048-051>054-059>061-121500-
CENTRAL ILLINOIS

CITY           SKY/WX    TMP DP  RH WIND       PRES   REMARKS
PONTIAC        TSTM      72  70  94 S10G23    30.08R VSB 1
BLOOMINGTON    LGT RAIN  69  67  93 SE12G20   30.11R FOG
DECATUR        CLOUDY    73  68  84 S10       30.10F
PEORIA         CLOUDY    79  71  76 NW3       30.06R HX  82
LACON*         CLOUDY    72  69  91 CALM      30.04F
LINCOLN*       CLOUDY    76  71  83 S9        30.06R
SPRINGFIELD    CLOUDY    80  73  79 S7        30.08S HX  84
TAYLORVILLE    CLOUDY    73  72  94 S8        30.10F
$$

ILZ033-039-045-046-055>057-062-063-121500-
EAST-CENTRAL ILLINOIS

CITY           SKY/WX    TMP DP  RH WIND       PRES   REMARKS
CHAMPAIGN      TSTM      70  68  93 VRB5      30.15R VSB 1
RANTOUL*       RAIN      71  68  90 SW15G21   30.14R
MATTOON        LGT RAIN  69  69 100 SE7       30.13F
PARIS*         RAIN      70  69  96 SW8       30.15R
$$

ILZ079-100>102-121500-
SOUTHWEST ILLINOIS

CITY           SKY/WX    TMP DP  RH WIND       PRES   REMARKS
ALTON          CLOUDY    81  77  89 S9        30.11S HX  88
CAHOKIA*       CLOUDY    79  75  87 S7        30.11S HX  83
SPARTA*        PTSUNNY   77  72  83 SW7       30.14S
$$

ILZ064>066-069>071-074>076-080>082-084>086-088>090-092>094-121500-
SOUTH-CENTRAL ILLINOIS

CITY           SKY/WX    TMP DP  RH WIND       PRES   REMARKS
CARBONDALE     CLOUDY    78  73  84 S8        30.15R HX  81
CAIRO*         PTSUNNY   80  73  79 SW5       30.18R HX  85
MARION         CLOUDY    77  72  83 S7        30.17R
MT. VERNON     CLOUDY    77  70  78 S7        30.15S
CENTRALIA*     CLOUDY    78  70  78 S5        30.14R
SALEM*         CLOUDY    78  73  83 S6        30.14R HX  80
METROPOLIS*    PTSUNNY   79  69  72 CALM      30.17S HX  82
$$

ILZ067-068-072-073-078-083-087-091-121500-
SOUTHEAST ILLINOIS

CITY           SKY/WX    TMP DP  RH WIND       PRES   REMARKS
FLORA*         CLOUDY    72  70  92 N5        30.15R
HARRISBURG*    CLOUDY    75  71  89 SW3       30.17S
ROBINSON*      CLOUDY    72  70  95 W7        30.19R
CARMI*         CLOUDY    76  71  86 S3        30.15S
$$

ABBREVIATIONS USED IN REMARKS
   TC - TEMPERATURE IN CELSIUS
  WCI - WIND CHILL INDEX
   HX - HEAT INDEX
  VSB - VISIBILITY
$$




USA.gov is the U.S. government's official web portal to all federal, state and local government web resources and services.